2023/09/15 00:00:00,63.5,21.4
2023/09/15 00:10:00,63.5,21.1
2023/09/15 00:20:00,63.7,21.2
2023/09/15 00:30:00,63.8,21.3
2023/09/15 00:40:00,63.7,21.3
2023/09/15 00:50:00,63.9,21.2
2023/09/15 01:00:00,63.8,21.2
2023/09/15 01:10:00,63.8,21.0
2023/09/15 01:20:00,64.0,21.0
2023/09/15 01:30:00,63.9,21.1
2023/09/15 01:40:00,63.9,20.9
2023/09/15 01:50:00,63.9,21.0
2023/09/15 02:00:00,63.6,21.0
2023/09/15 02:10:00,63.7,21.0
2023/09/15 02:20:00,63.6,20.8
2023/09/15 02:30:00,63.8,20.8
2023/09/15 02:40:00,63.7,21.0
2023/09/15 02:50:00,63.6,20.9
2023/09/15 03:00:00,63.5,20.8
2023/09/15 03:10:00,63.7,21.0
2023/09/15 03:20:00,64.0,21.0
2023/09/15 03:30:00,63.8,21.0
2023/09/15 03:40:00,63.9,20.8
2023/09/15 03:50:00,63.9,21.0
2023/09/15 04:00:00,63.9,20.8
2023/09/15 04:10:00,63.8,20.8
2023/09/15 04:20:00,63.8,20.7
2023/09/15 04:30:00,63.6,20.8
2023/09/15 04:40:00,63.8,20.8
2023/09/15 04:50:00,63.8,20.9
2023/09/15 05:00:00,63.8,20.8
2023/09/15 05:10:00,63.7,20.9
2023/09/15 05:20:00,63.6,20.4
2023/09/15 05:30:00,63.7,20.8
2023/09/15 05:40:00,63.8,20.6
2023/09/15 05:50:00,63.7,20.9
2023/09/15 06:00:00,63.8,20.7
2023/09/15 06:10:00,63.6,21.0
2023/09/15 06:20:00,63.8,20.8
2023/09/15 06:30:00,63.8,21.0
2023/09/15 06:40:00,63.6,21.6
2023/09/15 06:50:00,63.9,21.2
2023/09/15 07:00:00,63.8,21.2
2023/09/15 07:10:00,63.9,21.2
2023/09/15 07:20:00,63.7,21.5
2023/09/15 07:30:00,64.0,21.6
2023/09/15 07:40:00,63.9,21.7
2023/09/15 07:50:00,63.6,21.4
2023/09/15 08:00:00,63.8,21.6
2023/09/15 08:10:00,63.9,22.0
2023/09/15 08:20:00,64.0,22.5
2023/09/15 08:30:00,64.0,22.5
2023/09/15 08:40:00,64.3,23.0
2023/09/15 08:50:00,64.6,22.8
2023/09/15 09:00:00,64.0,23.0
2023/09/15 09:10:00,52.9,22.9
2023/09/15 09:20:00,64.6,23.4
2023/09/15 09:30:00,34.5,23.5
2023/09/15 09:40:00,---,23.7
2023/09/15 09:50:00,---,24.2
2023/09/15 10:00:00,---,24.5
2023/09/15 10:10:00,63.8,24.5
2023/09/15 10:20:00,63.6,25.1
2023/09/15 10:30:00,64.3,25.2
2023/09/15 10:40:00,---,26.1
2023/09/15 10:50:00,---,25.8
2023/09/15 11:00:00,---,25.3
2023/09/15 11:10:00,64.0,26.5
2023/09/15 11:20:00,---,27.0
2023/09/15 11:30:00,62.5,27.1
2023/09/15 11:40:00,---,26.7
2023/09/15 11:50:00,---,26.9
2023/09/15 12:00:00,62.2,26.8
2023/09/15 12:10:00,62.9,26.3
2023/09/15 12:20:00,63.3,26.6
2023/09/15 12:30:00,63.3,26.5
2023/09/15 12:40:00,63.1,25.4
2023/09/15 12:50:00,62.5,24.8
2023/09/15 13:00:00,63.4,25.3
2023/09/15 13:10:00,---,26.1
2023/09/15 13:20:00,---,25.5
2023/09/15 13:30:00,62.4,26.5
2023/09/15 13:40:00,62.4,27.8
2023/09/15 13:50:00,60.7,28.1
2023/09/15 14:00:00,61.2,27.6
2023/09/15 14:10:00,62.4,27.2
2023/09/15 14:20:00,62.4,27.8
2023/09/15 14:30:00,61.8,27.6
2023/09/15 14:40:00,62.1,26.6
2023/09/15 14:50:00,62.5,26.4
2023/09/15 15:00:00,62.7,26.2
2023/09/15 15:10:00,62.4,26.0
2023/09/15 15:20:00,62.4,25.7
2023/09/15 15:30:00,62.6,25.8
2023/09/15 15:40:00,62.3,25.6
2023/09/15 15:50:00,62.0,25.4
2023/09/15 16:00:00,62.4,25.0
2023/09/15 16:10:00,62.7,25.3
2023/09/15 16:20:00,62.3,25.4
2023/09/15 16:30:00,61.7,25.1
2023/09/15 16:40:00,61.6,25.1
2023/09/15 16:50:00,61.4,25.3
2023/09/15 17:00:00,61.7,24.7
2023/09/15 17:10:00,62.2,24.6
2023/09/15 17:20:00,62.4,24.5
2023/09/15 17:30:00,62.6,24.3
2023/09/15 17:40:00,62.5,24.0
2023/09/15 17:50:00,62.9,23.8
2023/09/15 18:00:00,63.2,23.3
2023/09/15 18:10:00,63.2,23.4
2023/09/15 18:20:00,63.2,23.3
2023/09/15 18:30:00,63.2,23.0
2023/09/15 18:40:00,63.1,22.8
2023/09/15 18:50:00,63.1,22.6
2023/09/15 19:00:00,63.2,22.8
2023/09/15 19:10:00,63.3,23.1
2023/09/15 19:20:00,63.2,22.6
2023/09/15 19:30:00,63.2,22.7
2023/09/15 19:40:00,63.4,22.6
2023/09/15 19:50:00,63.3,22.5
2023/09/15 20:00:00,63.3,22.0
2023/09/15 20:10:00,63.4,22.3
2023/09/15 20:20:00,63.3,22.3
2023/09/15 20:30:00,63.3,22.6
2023/09/15 20:40:00,63.3,22.4
2023/09/15 20:50:00,63.4,22.3
2023/09/15 21:00:00,63.6,22.6
2023/09/15 21:10:00,63.4,22.5
2023/09/15 21:20:00,63.4,22.4
2023/09/15 21:30:00,63.8,22.5
2023/09/15 21:40:00,63.7,22.4
2023/09/15 21:50:00,63.5,22.6
2023/09/15 22:00:00,63.7,22.5
2023/09/15 22:10:00,64.3,22.5
2023/09/15 22:20:00,---,22.3
2023/09/15 22:30:00,---,22.4
2023/09/15 22:40:00,---,22.3
2023/09/15 22:50:00,64.3,22.0
2023/09/15 23:00:00,---,22.4
2023/09/15 23:10:00,64.0,22.3
2023/09/15 23:20:00,64.1,22.4
2023/09/15 23:30:00,63.9,22.2
2023/09/15 23:40:00,63.8,22.1
2023/09/15 23:50:00,63.8,22.1
